李-スワン彗星

C/2009 F6 ( Yi-SWAN )

English version
Home page
Updated on March 27, 2010

---------------------------------------------------------------------

・ プロフィール

発見日 2009年3月26日、3月29日
発見光度 12.5等
発見者 R. D. Matson (SWAN images)、李大岩 (Yeongwol-kun, Gangwon-do, Korea)

・ 写真集

・ 軌道要素

Epoch 2009 May 9.0 TT = JDT 2454960.5
T 2009 May 7.43415 TT                                   MPC
q   1.2741595            (2000.0)            P               Q
z  +0.0019627      Peri.  129.77283     -0.04042577     -0.16268431
 +/-0.0000156      Node   278.67904     +0.28320075     +0.94433007
e   0.9974993      Incl.   85.76477     +0.95820827     -0.28596248

・ 星図

・ 光度変化

        m1 =  4.0 + 5 logΔ + 30.0 log r(t + 10)  [   ,113]  (              〜2009年 8月28日)
        m1 = 11.0 + 5 logΔ + 10.0 log r          [113,   ]  (2009年 8月28日〜              )

---------------------------------------------------------------------

軌道要素はM.P.E.C. 2009-S14に掲載されたものです。
星図はステラナビゲータ Ver.8 (アストロアーツ) で作成したものです。
光度グラフはComet for Windowsで作成したものです。

---------------------------------------------------------------------

Copyright(C) Seiichi Yoshida (comet@aerith.net). All rights reserved.